[[{"header":{"parameterUnit":"m.s-1","parameterCategory":1,"la1":30.2991,"la2":30.254,"lo1":-89.0895,"lo2":-89.0444,"dy":0.0017,"dx":0.0017,"nx":28,"ny":28,"refTime":"2024-08-19T21:00:00:Z","depth":0,"parameterNumber":2,"parameterNumberName":"U-component_of_WINDS"},"data":[0,0,0,0,0,0,0,0,0,0,0,0,0,0,0,0,0,0,0,0,0,0,0,0,0,0,0,0,0,0,0,0,0,0,0,0,0,0,0,0,0,0,0,0,0,0,0,0,0,0,0,0,0,0,0,0,0,0,-0.5088,-0.5089,0,-0.5194,-0.5196,-0.5197,-0.5198,-0.5196,-0.5195,-0.5193,-0.5308,-0.5312,-0.5316,0,0,0,0,0,0,0,0,0,0,0,0,0,-0.4889,-0.4893,-0.5088,-0.5089,-0.509,-0.5194,-0.5196,-0.5197,-0.5198,-0.5196,-0.5194,-0.5193,-0.5307,-0.5312,-0.5317,0,0,0,0,0,0,0,0,0,0,0,0,0,-0.4984,-0.4894,-0.5088,-0.5103,-0.5106,-0.5194,-0.5196,-0.5198,-0.5198,-0.5196,-0.5194,-0.5192,-0.5305,-0.5311,-0.5318,-0.5399,0,0,-0.5337,-0.534,0,0,0,0,0,0,0,0,-0.4979,-0.4991,-0.5099,-0.5102,-0.5105,-0.518,-0.5168,-0.5265,-0.5199,-0.5163,-0.5193,-0.5191,-0.5268,-0.5277,-0.5302,-0.5405,-0.541,-0.5338,-0.5342,-0.5345,-0.5347,0,0,0,0,0,0,0,-0.4972,-0.4987,-0.513,-0.5101,-0.5105,-0.5106,-0.5117,-0.5186,-0.5226,-0.5166,-0.5166,-0.5179,-0.5269,-0.5295,-0.5304,-0.5411,-0.5338,-0.5344,-0.5348,-0.535,-0.5588,-0.559,0,0,0,0,0,0,-0.4962,-0.4981,-0.5127,-0.5133,-0.5035,-0.5112,-0.5124,-0.5158,-0.5225,-0.5233,-0.518,-0.5178,-0.5285,-0.5297,-0.5308,-0.541,-0.5345,-0.5351,-0.5355,-0.5585,-0.5588,-0.5591,0,0,0,0,0,0,-0.4957,-0.4975,-0.5122,-0.5057,-0.5076,-0.5117,-0.5156,-0.5162,-0.5188,-0.5236,-0.5243,-0.52,-0.5284,-0.5299,-0.5377,-0.5414,-0.5354,-0.536,-0.5582,-0.5586,-0.5589,-0.5612,0,0,0,0,0,0,-0.4952,-0.4973,-0.5003,-0.5058,-0.508,-0.5187,-0.5158,-0.5165,-0.5199,-0.5197,-0.5256,-0.5264,-0.5284,-0.5367,-0.5383,-0.5421,-0.5365,-0.5579,-0.5584,-0.5588,-0.5608,-0.5616,-0.5622,0,0,0,0,0,-0.4945,-0.5006,-0.5005,-0.5023,-0.5118,-0.519,-0.5202,-0.5222,-0.5202,-0.5234,-0.5264,-0.5262,-0.5406,-0.5375,-0.5393,-0.5434,-0.5577,-0.5583,-0.5588,-0.5605,-0.5614,-0.5622,0,0,0,0,0,0,-0.4957,-0.5014,-0.5013,-0.5094,-0.5137,-0.5189,-0.523,-0.5231,-0.5282,-0.5279,-0.5302,-0.5316,-0.5393,-0.5421,-0.5385,-0.5517,-0.549,-0.5499,-0.5496,-0.5505,-0.5512,-0.5505,-0.537,0,0,0,0,0,-0.4969,-0.502,-0.5068,-0.5135,-0.5156,-0.5189,-0.5221,-0.5232,-0.5278,-0.5297,-0.5333,-0.5379,-0.5435,-0.5471,-0.5525,-0.5611,-0.5625,-0.5648,-0.5655,-0.5661,-0.567,-0.5719,-0.573,-0.5608,-0.5608,-0.5608,0,0,-0.4995,-0.5032,-0.5064,-0.5138,-0.5173,-0.5227,-0.5205,-0.5263,-0.5304,-0.5307,-0.5382,-0.5409,-0.5463,-0.5545,-0.5583,-0.5571,-0.5706,-0.5668,-0.5672,-0.5678,-0.5725,-0.5737,-0.5747,-0.5612,-0.5611,-0.5611,0,0,-0.507,-0.5103,-0.5162,-0.5197,-0.5249,-0.527,-0.5284,-0.5337,-0.5355,-0.543,-0.5433,-0.5483,-0.5578,-0.5616,-0.5648,-0.5736,-0.5737,-0.5753,-0.5792,-0.5839,-0.5849,-0.5857,-0.5891,-0.5902,-0.5761,-0.5761,-0.5761,0,-0.5097,-0.5177,-0.5194,-0.5252,-0.5286,-0.5287,-0.5349,-0.5383,-0.545,-0.5474,-0.5458,-0.5578,-0.5614,-0.5705,-0.5727,-0.5752,-0.5771,-0.5748,-0.5845,-0.5854,-0.5863,-0.5895,-0.5907,-0.5763,-0.5763,-0.5763,-0.5762,0,-0.5207,-0.5263,-0.5306,-0.5369,-0.5407,-0.5467,-0.5494,-0.5531,-0.5538,-0.5562,-0.5639,-0.5682,-0.5745,-0.5767,-0.5775,-0.586,-0.5851,-0.584,-0.5814,-0.5876,-0.5907,-0.5919,-0.5765,-0.5765,-0.5764,-0.5764,0,0,-0.5296,-0.5366,-0.5382,-0.5411,-0.5467,-0.5512,-0.5572,-0.5631,-0.5663,-0.5709,-0.5762,-0.5842,-0.5832,-0.5868,-0.5881,-0.5922,-0.5992,-0.5907,-0.5908,-0.5923,-0.6089,-0.6099,-0.6112,-0.5991,-0.5994,-0.5996,-0.6086,0,-0.5379,-0.5484,-0.55,-0.5594,-0.5647,-0.5649,-0.5702,-0.5743,-0.5767,-0.5816,-0.5842,-0.5899,-0.5881,-0.5903,-0.5944,-0.5974,-0.6026,-0.5968,-0.6043,-0.6045,-0.6032,-0.6128,-0.6138,-0.6221,-0.6097,-0.6099,-0.6101,0,-0.549,-0.5537,-0.5635,-0.5685,-0.5708,-0.5755,-0.5811,-0.5857,-0.5905,-0.5919,-0.5958,-0.5966,-0.603,-0.5999,-0.6089,-0.6049,-0.6081,-0.61,-0.6104,-0.6114,-0.6078,-0.6143,-0.6248,-0.6261,-0.612,-0.6118,-0.6117,0,-0.5546,-0.5635,-0.5705,-0.573,-0.5789,-0.5822,-0.5848,-0.5893,-0.5928,-0.5978,-0.6001,-0.6058,-0.6089,-0.6134,-0.6157,-0.6132,-0.6247,-0.6217,-0.6262,-0.6262,-0.6288,-0.6287,-0.6402,-0.6305,-0.6304,-0.6304,-0.6304,0,-0.5638,-0.5699,-0.5731,-0.5775,-0.5844,-0.5862,-0.593,-0.5956,-0.5995,-0.6046,-0.6051,-0.6098,-0.6125,-0.6176,-0.6195,-0.6268,-0.6282,-0.6297,-0.6301,-0.6298,-0.6296,-0.632,-0.6316,-0.6308,-0.6307,-0.6306,-0.6306,0,-0.5715,-0.5738,-0.5815,-0.5864,-0.5878,-0.5927,-0.5969,-0.6013,-0.6035,-0.6098,-0.6114,-0.615,-0.6211,-0.6238,-0.6314,-0.6326,-0.641,-0.6409,-0.6394,-0.6396,-0.644,-0.6437,-0.6578,-0.6598,-0.6485,-0.6486,-0.6487,0,-0.5773,-0.5819,-0.5872,-0.5905,-0.5932,-0.5985,-0.6021,-0.604,-0.6077,-0.6134,-0.6171,-0.6232,-0.6281,-0.6379,-0.6413,-0.6471,-0.6473,-0.6519,-0.6482,-0.6477,-0.6477,-0.6474,-0.648,-0.6526,-0.6527,-0.6528,-0.6529,0,-0.5874,-0.5883,-0.5933,-0.5987,-0.6028,-0.6072,-0.6115,-0.6142,-0.6168,-0.621,-0.6271,-0.6309,-0.6385,-0.6447,-0.6506,-0.6536,-0.6538,-0.6539,-0.6554,-0.6551,-0.6541,-0.6549,-0.6414,-0.6537,-0.6536,-0.6536,-0.6535,-0.6535,-0.5945,-0.5987,-0.603,-0.6086,-0.6119,-0.6159,-0.6202,-0.6229,-0.628,-0.6343,-0.6351,-0.6417,-0.6464,-0.6545,-0.6576,-0.6629,-0.6618,-0.6638,-0.6643,-0.6649,-0.6652,-0.653,-0.664,-0.664,-0.6639,-0.6639,-0.6639,0,-0.6048,-0.6076,-0.6126,-0.6185,-0.6229,-0.6224,-0.6271,-0.6309,-0.6366,-0.6409,-0.6457,-0.6528,-0.6587,-0.6624,-0.6684,-0.672,-0.6722,-0.6735,-0.6734,-0.6741,-0.6658,-0.664,-0.6732,-0.6732,-0.6732,-0.6732,-0.6732,-0.6732,-0.6108,-0.6178,-0.6192,-0.628,-0.6308,-0.6372,-0.6399,-0.6436,-0.647,-0.6549,-0.6597,-0.662,-0.6662,-0.6724,-0.6778,-0.6788,-0.6811,-0.6825,-0.6834,-0.6756,-0.6747,-0.6738,-0.6722,-0.6829,-0.6829,-0.6914,-0.6914,-0.6915]},{"header":{"parameterUnit":"m.s-1","parameterCategory":1,"la1":30.2991,"la2":30.254,"lo1":-89.0895,"lo2":-89.0444,"dy":0.0017,"dx":0.0017,"nx":28,"ny":28,"refTime":"2024-08-19T21:00:00:Z","depth":0,"parameterNumber":3,"parameterNumberName":"V-component_of_WINDS"},"data":[0,0,0,0,0,0,0,0,0,0,0,0,0,0,0,0,0,0,0,0,0,0,0,0,0,0,0,0,0,0,0,0,0,0,0,0,0,0,0,0,0,0,0,0,0,0,0,0,0,0,0,0,0,0,0,0,0,0,-3.4853,-3.4853,0,-3.4872,-3.4872,-3.4873,-3.4779,-3.4776,-3.4773,-3.4771,-3.4789,-3.4792,-3.4795,0,0,0,0,0,0,0,0,0,0,0,0,0,-3.4734,-3.4737,-3.4853,-3.4853,-3.4854,-3.4872,-3.4872,-3.4873,-3.4779,-3.4776,-3.4772,-3.4769,-3.4788,-3.4792,-3.4795,0,0,0,0,0,0,0,0,0,0,0,0,0,-3.4773,-3.4738,-3.4853,-3.4809,-3.4805,-3.4872,-3.4872,-3.4873,-3.478,-3.4776,-3.4772,-3.4768,-3.4787,-3.4791,-3.4796,-3.4905,0,0,-3.481,-3.4812,0,0,0,0,0,0,0,0,-3.4771,-3.4777,-3.4815,-3.4812,-3.4808,-3.4819,-3.4837,-3.4884,-3.4781,-3.4789,-3.477,-3.4766,-3.4802,-3.4805,-3.4818,-3.4906,-3.4907,-3.481,-3.4813,-3.4815,-3.4816,0,0,0,0,0,0,0,-3.4768,-3.4776,-3.4861,-3.4816,-3.4812,-3.4788,-3.4789,-3.4845,-3.4818,-3.4788,-3.4782,-3.4785,-3.4799,-3.4814,-3.4817,-3.4907,-3.481,-3.4814,-3.4817,-3.4818,-3.5086,-3.509,0,0,0,0,0,0,-3.4771,-3.4774,-3.486,-3.4861,-3.4779,-3.4793,-3.4795,-3.482,-3.4818,-3.4813,-3.4789,-3.4781,-3.4808,-3.4812,-3.4818,-3.4946,-3.4815,-3.4819,-3.4821,-3.5082,-3.5087,-3.5092,0,0,0,0,0,0,-3.4769,-3.478,-3.4859,-3.4816,-3.4824,-3.48,-3.4829,-3.4822,-3.4836,-3.4818,-3.4812,-3.4808,-3.4805,-3.4811,-3.4884,-3.4945,-3.4821,-3.4825,-3.5077,-3.5083,-3.5089,-3.5203,0,0,0,0,0,0,-3.4766,-3.478,-3.4822,-3.4818,-3.4827,-3.4926,-3.4832,-3.4825,-3.4844,-3.4834,-3.4835,-3.4831,-3.4802,-3.4878,-3.4889,-3.4949,-3.4829,-3.5071,-3.508,-3.5087,-3.5194,-3.5213,-3.5229,0,0,0,0,0,-3.4762,-3.4853,-3.4824,-3.4835,-3.4879,-3.493,-3.4935,-3.4901,-3.485,-3.4891,-3.4879,-3.4831,-3.4937,-3.4886,-3.4898,-3.496,-3.5067,-3.5077,-3.5087,-3.5186,-3.5209,-3.5229,0,0,0,0,0,0,-3.4864,-3.4851,-3.482,-3.4911,-3.4923,-3.4914,-3.4965,-3.4926,-3.4952,-3.4941,-3.4897,-3.4898,-3.4978,-3.4976,-3.492,-3.5066,-3.4993,-3.5005,-3.5064,-3.5086,-3.5103,-3.5102,-3.4832,0,0,0,0,0,-3.4897,-3.494,-3.4927,-3.5009,-3.5016,-3.499,-3.5011,-3.4984,-3.4993,-3.4997,-3.4991,-3.5001,-3.5037,-3.5061,-3.5093,-3.5193,-3.5191,-3.5241,-3.5259,-3.5274,-3.5285,-3.5338,-3.536,-3.5124,-3.5124,-3.5124,0,0,-3.4966,-3.4964,-3.4994,-3.5029,-3.5035,-3.508,-3.4995,-3.5046,-3.5079,-3.5005,-3.5073,-3.5069,-3.5078,-3.5165,-3.5203,-3.5166,-3.535,-3.5286,-3.5298,-3.5301,-3.535,-3.5373,-3.5392,-3.5131,-3.513,-3.5129,0,0,-3.5115,-3.5118,-3.5187,-3.5194,-3.5203,-3.5185,-3.5202,-3.52,-3.5194,-3.5262,-3.5207,-3.5246,-3.5308,-3.5317,-3.5329,-3.5481,-3.5438,-3.5493,-3.5585,-3.5637,-3.5655,-3.5671,-3.5726,-3.5746,-3.5504,-3.5504,-3.5505,0,-3.5199,-3.5266,-3.5227,-3.5283,-3.53,-3.5234,-3.5304,-3.5312,-3.5332,-3.5345,-3.5303,-3.538,-3.5381,-3.5469,-3.5506,-3.5519,-3.5536,-3.5493,-3.5656,-3.5671,-3.5686,-3.5737,-3.5758,-3.5511,-3.551,-3.551,-3.5509,0,-3.5369,-3.5416,-3.547,-3.5491,-3.5514,-3.5576,-3.5547,-3.5574,-3.5545,-3.5531,-3.5601,-3.5601,-3.5631,-3.565,-3.5621,-3.5734,-3.5711,-3.5663,-3.5589,-3.5716,-3.5763,-3.5783,-3.5521,-3.5518,-3.5516,-3.5515,0,0,-3.5583,-3.5581,-3.5602,-3.5611,-3.5616,-3.5651,-3.571,-3.574,-3.5765,-3.578,-3.5829,-3.5883,-3.5839,-3.5853,-3.5825,-3.587,-3.5991,-3.5817,-3.5816,-3.5849,-3.6115,-3.6152,-3.6175,-3.5962,-3.5965,-3.5968,-3.6115,0,-3.5728,-3.583,-3.5797,-3.5899,-3.5942,-3.5881,-3.5932,-3.594,-3.5929,-3.5963,-3.595,-3.599,-3.5929,-3.5937,-3.5979,-3.5967,-3.6044,-3.5956,-3.6006,-3.6008,-3.6006,-3.62,-3.6238,-3.6376,-3.6133,-3.6136,-3.6138,0,-3.5912,-3.5936,-3.6043,-3.6041,-3.6057,-3.6104,-3.6129,-3.6163,-3.6171,-3.616,-3.6176,-3.6138,-3.6195,-3.6121,-3.6199,-3.614,-3.6158,-3.6156,-3.616,-3.6164,-3.6081,-3.6209,-3.642,-3.6441,-3.6167,-3.6165,-3.6163,0,-3.6058,-3.6116,-3.6187,-3.6196,-3.6196,-3.623,-3.6232,-3.6236,-3.6256,-3.6278,-3.629,-3.6318,-3.6334,-3.6356,-3.6327,-3.6275,-3.6409,-3.6332,-3.6401,-3.6402,-3.6433,-3.6431,-3.665,-3.6444,-3.6444,-3.6443,-3.6443,0,-3.6224,-3.6292,-3.6253,-3.6297,-3.6371,-3.6332,-3.6406,-3.64,-3.6405,-3.6446,-3.6394,-3.6435,-3.6393,-3.6429,-3.6406,-3.6474,-3.6481,-3.6474,-3.6467,-3.6479,-3.648,-3.649,-3.648,-3.6449,-3.6448,-3.6447,-3.6446,0,-3.64,-3.6376,-3.645,-3.6444,-3.6443,-3.6499,-3.6493,-3.6533,-3.6518,-3.6571,-3.6581,-3.6558,-3.6597,-3.657,-3.6609,-3.6594,-3.6684,-3.6663,-3.6681,-3.6676,-3.6747,-3.6741,-3.698,-3.701,-3.6785,-3.6787,-3.6789,0,-3.6508,-3.6559,-3.6558,-3.6583,-3.6587,-3.6627,-3.6648,-3.6611,-3.6634,-3.6648,-3.6687,-3.6722,-3.6748,-3.6814,-3.6801,-3.6831,-3.6811,-3.6892,-3.6815,-3.6825,-3.6812,-3.681,-3.6815,-3.6908,-3.6911,-3.6913,-3.6915,0,-3.6703,-3.6688,-3.672,-3.6749,-3.6775,-3.6795,-3.681,-3.6833,-3.6796,-3.6825,-3.6865,-3.6886,-3.6926,-3.6962,-3.6987,-3.6987,-3.6946,-3.6939,-3.6957,-3.697,-3.6979,-3.6975,-3.6725,-3.6934,-3.6932,-3.6931,-3.693,-3.6929,-3.6848,-3.6891,-3.6897,-3.6934,-3.6942,-3.6958,-3.6996,-3.6985,-3.7018,-3.7049,-3.7025,-3.7073,-3.708,-3.7108,-3.7114,-3.7151,-3.7118,-3.7143,-3.715,-3.7157,-3.7167,-3.6972,-3.7155,-3.7155,-3.7154,-3.7154,-3.7153,0,-3.704,-3.7041,-3.7076,-3.71,-3.7129,-3.7087,-3.7103,-3.713,-3.7173,-3.7183,-3.721,-3.7256,-3.7291,-3.728,-3.731,-3.7342,-3.7323,-3.7351,-3.7348,-3.7349,-3.7195,-3.7177,-3.7365,-3.7365,-3.7365,-3.7365,-3.7365,-3.7365,-3.7144,-3.7214,-3.72,-3.7273,-3.7273,-3.732,-3.7333,-3.7347,-3.7355,-3.7409,-3.7438,-3.743,-3.7432,-3.7462,-3.7491,-3.7487,-3.7501,-3.7536,-3.7525,-3.7381,-3.736,-3.734,-3.7323,-3.7539,-3.7539,-3.7676,-3.7677,-3.7678]}]]